• In Hungary
  • List of Countries
  • For 7 days
  • Water Temperature
  • Satellite Maps
  • Weather Map
  • News
  • Weather Widgets
  • user-avatar
    Login

    Hourly Weather Anuradhapura

    Today, 13 December, Wednesday

    Time Temperature Precipitation Wind Pressure Humidity
    00:00 +26°C° 0.1 mm 1 mps 752 mmHg 91%
    01:00 +26°C° 0.1 mm 1 mps 752 mmHg 92%
    02:00 +26°C° 0.1 mm 1 mps 751 mmHg 93%
    03:00 +26°C° 0 mm 1 mps 751 mmHg 93%
    04:00 +25°C° 0 mm 1 mps 751 mmHg 94%
    05:00 +25°C° 0 mm 1 mps 751 mmHg 95%
    06:00 +26°C° 0 mm 1 mps 752 mmHg 91%
    07:00 +27°C° 0 mm 1 mps 752 mmHg 87%
    08:00 +28°C° 0 mm 1 mps 752 mmHg 82%
    09:00 +30°C° 0.2 mm 1 mps 752 mmHg 76%
    10:00 +31°C° 0.2 mm 2 mps 752 mmHg 70%
    11:00 +32°C° 0.2 mm 2 mps 752 mmHg 64%
    12:00 +32°C° 1.2 mm 2 mps 751 mmHg 65%
    13:00 +32°C° 1.2 mm 2 mps 751 mmHg 67%
    14:00 +32°C° 1.2 mm 2 mps 750 mmHg 68%
    15:00 +31°C° 1.4 mm 2 mps 750 mmHg 73%
    16:00 +29°C° 1.4 mm 1 mps 750 mmHg 79%
    17:00 +28°C° 1.4 mm 1 mps 750 mmHg 84%
    18:00 +28°C° 0.1 mm 1 mps 751 mmHg 86%
    19:00 +27°C° 0.1 mm 1 mps 751 mmHg 88%
    20:00 +27°C° 0.1 mm 1 mps 752 mmHg 90%
    21:00 +26°C° 0 mm 1 mps 752 mmHg 91%
    22:00 +26°C° 0 mm 1 mps 752 mmHg 92%
    23:00 +26°C° 0 mm 1 mps 752 mmHg 93%

    Tomorrow, 14 December, Thursday

    Time Temperature Precipitation Wind Pressure Humidity
    00:00 +26°C° 0.2 mm 1 mps 751 mmHg 94%
    01:00 +26°C° 0.2 mm 1 mps 751 mmHg 94%
    02:00 +25°C° 0.2 mm 1 mps 751 mmHg 95%
    03:00 +25°C° 0.2 mm 1 mps 751 mmHg 95%
    04:00 +25°C° 0.2 mm 1 mps 751 mmHg 95%
    05:00 +25°C° 0.2 mm 1 mps 751 mmHg 95%
    06:00 +26°C° 0 mm 1 mps 751 mmHg 91%
    07:00 +27°C° 0 mm 1 mps 752 mmHg 87%
    08:00 +28°C° 0 mm 2 mps 753 mmHg 83%
    09:00 +29°C° 0.9 mm 2 mps 753 mmHg 79%
    10:00 +30°C° 0.9 mm 2 mps 752 mmHg 74%
    11:00 +31°C° 0.9 mm 3 mps 752 mmHg 70%
    12:00 +31°C° 2.4 mm 3 mps 752 mmHg 72%
    13:00 +31°C° 2.4 mm 3 mps 751 mmHg 73%
    14:00 +31°C° 2.4 mm 3 mps 750 mmHg 75%
    15:00 +30°C° 1.2 mm 3 mps 750 mmHg 79%
    16:00 +29°C° 1.2 mm 2 mps 750 mmHg 83%
    17:00 +28°C° 1.2 mm 2 mps 750 mmHg 87%
    18:00 +27°C° 0 mm 2 mps 751 mmHg 89%
    19:00 +27°C° 0 mm 2 mps 751 mmHg 90%
    20:00 +26°C° 0 mm 2 mps 752 mmHg 91%
    21:00 +26°C° 0 mm 2 mps 752 mmHg 92%
    22:00 +26°C° 0 mm 2 mps 751 mmHg 93%
    23:00 +25°C° 0 mm 2 mps 751 mmHg 93%

    Day after tomorrow, 15 December, Friday

    Time Temperature Precipitation Wind Pressure Humidity
    00:00 +25°C° 0 mm 2 mps 751 mmHg 94%
    01:00 +25°C° 0 mm 2 mps 750 mmHg 94%
    02:00 +25°C° 0 mm 2 mps 750 mmHg 95%
    03:00 +25°C° 0 mm 2 mps 750 mmHg 95%
    04:00 +25°C° 0 mm 2 mps 750 mmHg 95%
    05:00 +25°C° 0 mm 1 mps 750 mmHg 95%
    06:00 +26°C° 0 mm 2 mps 751 mmHg 91%
    07:00 +27°C° 0 mm 3 mps 751 mmHg 88%
    08:00 +28°C° 0 mm 3 mps 752 mmHg 84%
    09:00 +29°C° 0.1 mm 3 mps 752 mmHg 79%
    10:00 +30°C° 0.1 mm 3 mps 752 mmHg 75%
    11:00 +31°C° 0.1 mm 3 mps 752 mmHg 70%
    12:00 +31°C° 1.2 mm 3 mps 751 mmHg 73%
    13:00 +32°C° 1.2 mm 4 mps 750 mmHg 76%
    14:00 +30°C° 1.2 mm 4 mps 750 mmHg 79%
    15:00 +29°C° 0.8 mm 4 mps 750 mmHg 82%
    16:00 +28°C° 0.8 mm 3 mps 750 mmHg 86%
    17:00 +28°C° 0.8 mm 3 mps 750 mmHg 89%
    18:00 +27°C° 0.3 mm 3 mps 751 mmHg 91%
    19:00 +26°C° 0.3 mm 3 mps 752 mmHg 93%
    20:00 +26°C° 0.3 mm 2 mps 752 mmHg 94%
    21:00 +26°C° 0 mm 2 mps 752 mmHg 94%
    22:00 +26°C° 0 mm 2 mps 752 mmHg 95%
    23:00 +25°C° 0 mm 2 mps 752 mmHg 95%

    16 December, Saturday

    Time Temperature Precipitation Wind Pressure Humidity
    00:00 +25°C° 0 mm 2 mps 752 mmHg 95%
    01:00 +25°C° 0 mm 2 mps 751 mmHg 95%
    02:00 +25°C° 0 mm 2 mps 751 mmHg 95%
    03:00 +25°C° 0 mm 2 mps 751 mmHg 95%
    04:00 +25°C° 0 mm 2 mps 751 mmHg 95%
    05:00 +25°C° 0 mm 2 mps 751 mmHg 95%
    06:00 +26°C° 0 mm 2 mps 752 mmHg 90%
    07:00 +27°C° 0 mm 3 mps 752 mmHg 86%
    08:00 +28°C° 0 mm 4 mps 753 mmHg 82%
    09:00 +30°C° 0 mm 4 mps 753 mmHg 76%
    10:00 +32°C° 0 mm 4 mps 753 mmHg 70%
    11:00 +33°C° 0 mm 4 mps 752 mmHg 64%
    12:00 +33°C° 0.1 mm 4 mps 751 mmHg 64%
    13:00 +33°C° 0.1 mm 4 mps 751 mmHg 63%
    14:00 +34°C° 0.1 mm 4 mps 750 mmHg 63%
    15:00 +32°C° 0.2 mm 4 mps 750 mmHg 69%
    16:00 +30°C° 0.2 mm 4 mps 750 mmHg 76%
    17:00 +29°C° 0.2 mm 3 mps 750 mmHg 82%
    18:00 +28°C° 0.1 mm 3 mps 751 mmHg 85%
    19:00 +27°C° 0.1 mm 3 mps 752 mmHg 88%
    20:00 +26°C° 0.1 mm 3 mps 753 mmHg 91%
    21:00 +26°C° 0.1 mm 3 mps 753 mmHg 91%
    22:00 +26°C° 0.1 mm 3 mps 753 mmHg 91%
    23:00 +26°C° 0.1 mm 3 mps 753 mmHg 92%

    17 December, Sunday

    Time Temperature Precipitation Wind Pressure Humidity
    00:00 +25°C° 0.1 mm 3 mps 752 mmHg 92%
    01:00 +25°C° 0.1 mm 3 mps 752 mmHg 92%
    02:00 +25°C° 0.1 mm 3 mps 751 mmHg 92%
    03:00 +25°C° 0.1 mm 3 mps 752 mmHg 92%
    04:00 +25°C° 0.1 mm 2 mps 752 mmHg 93%
    05:00 +25°C° 0.1 mm 2 mps 752 mmHg 93%
    06:00 +26°C° 0.1 mm 3 mps 753 mmHg 89%
    07:00 +27°C° 0.1 mm 4 mps 753 mmHg 86%
    08:00 +28°C° 0.1 mm 4 mps 754 mmHg 82%
    09:00 +29°C° 0.3 mm 5 mps 754 mmHg 78%
    10:00 +30°C° 0.3 mm 5 mps 753 mmHg 75%
    11:00 +32°C° 0.3 mm 5 mps 753 mmHg 71%
    12:00 +32°C° 0.8 mm 5 mps 752 mmHg 71%
    13:00 +32°C° 0.8 mm 5 mps 752 mmHg 70%
    14:00 +32°C° 0.8 mm 4 mps 751 mmHg 70%
    15:00 +30°C° 0.5 mm 4 mps 751 mmHg 74%
    16:00 +29°C° 0.5 mm 4 mps 751 mmHg 77%
    17:00 +28°C° 0.5 mm 3 mps 751 mmHg 81%
    18:00 +27°C° 0 mm 3 mps 752 mmHg 83%
    19:00 +26°C° 0 mm 3 mps 753 mmHg 86%
    20:00 +25°C° 0 mm 2 mps 753 mmHg 89%
    21:00 +25°C° 0 mm 2 mps 753 mmHg 90%
    22:00 +25°C° 0 mm 2 mps 753 mmHg 91%
    23:00 +25°C° 0 mm 2 mps 753 mmHg 91%

    18 December, Monday

    Time Temperature Precipitation Wind Pressure Humidity
    00:00 +25°C° 0 mm 2 mps 752 mmHg 92%
    01:00 +24°C° 0 mm 2 mps 752 mmHg 92%
    02:00 +24°C° 0 mm 2 mps 751 mmHg 93%
    03:00 +24°C° 0 mm 2 mps 752 mmHg 93%
    04:00 +24°C° 0 mm 2 mps 752 mmHg 93%
    05:00 +24°C° 0 mm 2 mps 752 mmHg 93%
    06:00 +25°C° 0 mm 3 mps 752 mmHg 89%
    07:00 +26°C° 0 mm 3 mps 753 mmHg 86%
    08:00 +28°C° 0 mm 4 mps 754 mmHg 82%
    09:00 +29°C° 0.1 mm 4 mps 753 mmHg 78%
    10:00 +30°C° 0.1 mm 4 mps 753 mmHg 74%
    11:00 +32°C° 0.1 mm 4 mps 753 mmHg 69%
    12:00 +30°C° 1.2 mm 4 mps 752 mmHg 72%
    13:00 +30°C° 1.2 mm 4 mps 751 mmHg 75%
    14:00 +30°C° 1.2 mm 4 mps 751 mmHg 78%
    15:00 +29°C° 0.8 mm 4 mps 751 mmHg 81%
    16:00 +28°C° 0.8 mm 4 mps 751 mmHg 85%
    17:00 +27°C° 0.8 mm 3 mps 751 mmHg 88%
    18:00 +27°C° 0.1 mm 3 mps 751 mmHg 90%
    19:00 +26°C° 0.1 mm 3 mps 752 mmHg 92%
    20:00 +26°C° 0.1 mm 2 mps 753 mmHg 93%
    21:00 +25°C° 0 mm 2 mps 753 mmHg 94%
    22:00 +25°C° 0 mm 2 mps 752 mmHg 95%
    23:00 +25°C° 0 mm 2 mps 752 mmHg 96%
    Show more